User: anonymous   Login
Location: *
(53.9002°N, 27.5624°E)
Time: 21:41:21
(UTC+00:00)
Language:

Cosmos 1447 Rocket - Orbit

View from above orbital plane
View from above orbital plane
View from above satellite
View from above satellite

Ground track
Ground track

The orbit data is extracted from the following two-line orbital elements,

1 13917U 83021B   20020.63757583 +.00000048 +00000-0 +32525-4 0  9996
2 13917 082.9425 262.8472 0029581 117.6254 261.7775 13.76841125849706
Epoch (UTC): 20 January 2020 15:18:06
Eccentricity: 0.0029581
inclination: 82.9425°
perigee height: 953 km
apogee height: 997 km
right ascension of ascending node: 262.8472°
argument of perigee: 117.6254°
revolutions per day: 13.76841125
mean anomaly at epoch: 261.7775°
orbit number at epoch: 84970

The dashed part of the orbit path shows where the satellite is in the earth's shadow,  

DLR